Погода в Сан Карлосе

Венесуэла     9°39′58″N   68°34′49″W
темп.,
°C
ветер,
м/с
пор.,
м/с
влажн.,
%
обл.,
%
осадки,
мм/ч
давл.,
гПа
погр.,
м
14 августа, вс
вс1423:00+22з1199100 7.0 101527
02:00+22зсз1198100 12.0 101422
05:00+21ссз1198100 2.3 101317
08:00+22с119888 2.9 101427
11:00+25ююз119299 2.6 1015280
14:00+24юв1296100 8.4 1014144
17:00+22вюв1398100 5.3 1013169
20:00+21с1199100 7.4 101434
15 августа, пн
пн1523:00+21ю0097100 0.1 101513
02:00+20с009886 0.1 101412
05:00+20св119890 0.0 101312
08:00+22ссв019511 0.0 1015145
11:00+26ююв237951 0.5 1015831
14:00+25ююв128848 2.7 1013564
17:00+26ююз118119 0.8 1010627
20:00+22ссз119515 0.9 101215
16 августа, вт
вт1623:00+22с119468 0.1 101419
02:00+21с119897 3.7 101323
05:00+21ссв119696 1.1 101222
08:00+23св1192100 1.1 101474
11:00+27вюв24775 1.4 1014765
14:00+28юв127549 4.3 1012738
17:00+28всв13707 1.6 1010701
20:00+23с11875 1.8 101216
17 августа, ср
ср1723:00+22ссз22851 0.0 101332
02:00+22с21830 0.0 101125
05:00+21ссв11853 0.0 101213
08:00+24св01791 0.0 1014103
11:00+29ююв22625 0.0 1014969
14:00+31ююв23543 0.0 10111580
17:00+27ююз117596 0.2 1009157
20:00+24ссз228361 0.4 101149
18 августа, чт
чт1823:00+23с22863 0.0 101333
02:00+21с22900 0.0 101146
05:00+21с21913 0.0 101129
08:00+24с127921 0.0 1013151
11:00+30юв225670 0.0 10121090
14:00+31ююв33515 0.0 10101447
17:00+30ююз236213 0.0 1008775
20:00+25ссз218157 0.1 101025